| time (UTC) | temp C | wind direction | speed KPH | gust KPH | rain 1hr cm | rain 24hr cm | rain mn cm | humidity % | barometer mb |
| 20260504130504 | 15 | 264 | 8.0 | 22.5 | 0.00 | 0.00 | 0.00 | 44 | 1012.2 |
| 20260504110505 | 4 | 265 | 0.0 | 0.0 | 0.00 | 0.00 | 0.00 | 87 | 1012.5 |
| 20260504100504 | 3 | 265 | 0.0 | 0.0 | 0.00 | 0.00 | 0.00 | 86 | 1012.5 |
| 20260504081503 | 2 | 265 | 0.0 | 0.0 | 0.00 | 0.00 | 0.00 | 87 | 1012.4 |
| 20260504081005 | 2 | 265 | 0.0 | 0.0 | 0.00 | 0.00 | 0.00 | 87 | 1012.3 |
| 20260504050504 | 4 | 265 | 0.0 | 0.0 | 0.00 | 0.00 | 0.00 | 82 | 1012.0 |
| 20260504050004 | 4 | 265 | 0.0 | 0.0 | 0.00 | 0.00 | 0.00 | 82 | 1012.0 |
| 20260504045504 | 4 | 265 | 0.0 | 0.0 | 0.00 | 0.00 | 0.00 | 82 | 1012.0 |
| 20260504045004 | 4 | 265 | 0.0 | 0.0 | 0.00 | 0.00 | 0.00 | 82 | 1011.8 |
| 20260504044504 | 4 | 265 | 0.0 | 0.0 | 0.00 | 0.00 | 0.00 | 82 | 1011.6 |
| 20260504044004 | 4 | 265 | 0.0 | 0.0 | 0.00 | 0.00 | 0.00 | 82 | 1011.5 |
| 20260504043004 | 4 | 265 | 0.0 | 0.0 | 0.00 | 0.00 | 0.00 | 81 | 1011.5 |
| 20260504042504 | 4 | 265 | 0.0 | 0.0 | 0.00 | 0.00 | 0.00 | 81 | 1011.5 |
| 20260504042004 | 5 | 265 | 0.0 | 0.0 | 0.00 | 0.00 | 0.00 | 81 | 1011.5 |
| 20260504041504 | 5 | 265 | 0.0 | 0.0 | 0.00 | 0.00 | 0.00 | 80 | 1011.4 |
| 20260504041004 | 5 | 265 | 0.0 | 0.0 | 0.00 | 0.00 | 0.00 | 79 | 1011.4 |
| 20260504040504 | 5 | 265 | 0.0 | 0.0 | 0.00 | 0.00 | 0.00 | 79 | 1011.3 |
| 20260504040004 | 5 | 265 | 0.0 | 0.0 | 0.00 | 0.00 | 0.00 | 78 | 1011.3 |
| 20260504035504 | 5 | 265 | 0.0 | 0.0 | 0.00 | 0.00 | 0.00 | 77 | 1011.4 |
| 20260504035004 | 5 | 265 | 0.0 | 0.0 | 0.00 | 0.00 | 0.00 | 77 | 1011.3 |
| 20260504034504 | 5 | 265 | 0.0 | 0.0 | 0.00 | 0.00 | 0.00 | 76 | 1011.3 |
| 20260504033504 | 5 | 265 | 0.0 | 0.0 | 0.00 | 0.00 | 0.00 | 75 | 1011.3 |
| 20260504032503 | 5 | 265 | 0.0 | 0.0 | 0.00 | 0.00 | 0.00 | 76 | 1011.3 |
| 20260504032004 | 5 | 265 | 0.0 | 0.0 | 0.00 | 0.00 | 0.00 | 76 | 1011.4 |
| 20260504031004 | 6 | 265 | 0.0 | 0.0 | 0.00 | 0.00 | 0.00 | 74 | 1011.3 |
| 20260504030004 | 6 | 265 | 0.0 | 0.0 | 0.00 | 0.00 | 0.00 | 73 | 1011.3 |
| 20260504025504 | 6 | 265 | 0.0 | 0.0 | 0.00 | 0.00 | 0.00 | 72 | 1011.4 |
| 20260504025004 | 6 | 265 | 0.0 | 0.0 | 0.00 | 0.00 | 0.00 | 73 | 1011.4 |
| 20260504024504 | 6 | 265 | 0.0 | 0.0 | 0.00 | 0.00 | 0.00 | 74 | 1011.4 |
| 20260504024005 | 6 | 265 | 0.0 | 0.0 | 0.00 | 0.00 | 0.00 | 72 | 1011.4 |
| 20260504023004 | 6 | 265 | 0.0 | 0.0 | 0.00 | 0.00 | 0.00 | 72 | 1011.4 |
| 20260504022004 | 7 | 265 | 0.0 | 0.0 | 0.00 | 0.00 | 0.00 | 68 | 1011.4 |
| 20260504021504 | 7 | 265 | 0.0 | 0.0 | 0.00 | 0.00 | 0.00 | 68 | 1011.4 |
| 20260504015504 | 8 | 265 | 0.0 | 0.0 | 0.00 | 0.00 | 0.00 | 66 | 1011.4 |
| 20260504015005 | 8 | 265 | 0.0 | 0.0 | 0.00 | 0.00 | 0.00 | 65 | 1011.4 |
| 20260504014504 | 8 | 265 | 0.0 | 0.0 | 0.00 | 0.00 | 0.00 | 63 | 1011.3 |
| 20260504014003 | 9 | 265 | 0.0 | 0.0 | 0.00 | 0.00 | 0.00 | 62 | 1011.3 |
| 20260504013504 | 9 | 265 | 0.0 | 0.0 | 0.00 | 0.00 | 0.00 | 58 | 1011.3 |
| 20260504013004 | 10 | 265 | 0.0 | 0.0 | 0.00 | 0.00 | 0.00 | 59 | 1011.2 |
| 20260504011004 | 10 | 265 | 0.0 | 0.0 | 0.00 | 0.00 | 0.00 | 51 | 1011.3 |
| 20260504010505 | 11 | 265 | 0.0 | 0.0 | 0.00 | 0.00 | 0.00 | 52 | 1011.1 |
| 20260504005504 | 11 | 265 | 0.0 | 0.0 | 0.00 | 0.00 | 0.00 | 50 | 1011.0 |
| 20260504005004 | 11 | 265 | 0.0 | 0.0 | 0.00 | 0.00 | 0.00 | 47 | 1010.9 |
| 20260504004004 | 12 | 265 | 0.0 | 4.8 | 0.00 | 0.00 | 0.00 | 46 | 1010.9 |
| 20260504002504 | 12 | 265 | 1.6 | 3.2 | 0.00 | 0.00 | 0.00 | 42 | 1010.7 |
| 20260504001504 | 13 | 265 | 0.0 | 3.2 | 0.00 | 0.00 | 0.00 | 40 | 1010.6 |
| 20260504001004 | 13 | 265 | 0.0 | 4.8 | 0.00 | 0.00 | 0.00 | 41 | 1010.5 |
| 20260504000503 | 13 | 266 | 1.6 | 8.0 | 0.00 | 0.00 | 0.00 | 39 | 1010.4 |
| 20260504000004 | 13 | 272 | 0.0 | 4.8 | 0.00 | 0.00 | 0.00 | 38 | 1010.5 |
| 20260503235503 | 13 | 272 | 3.2 | 8.0 | 0.00 | 0.00 | 0.00 | 38 | 1010.4 |
| 20260503235005 | 13 | 273 | 1.6 | 8.0 | 0.00 | 0.00 | 0.00 | 37 | 1010.2 |
| 20260503234004 | 14 | 273 | 3.2 | 9.7 | 0.00 | 0.00 | 0.00 | 38 | 1010.1 |
| 20260503233504 | 14 | 276 | 1.6 | 8.0 | 0.00 | 0.00 | 0.00 | 38 | 1010.0 |
| 20260503233004 | 14 | 281 | 3.2 | 8.0 | 0.00 | 0.00 | 0.00 | 38 | 1010.0 |
| 20260503232503 | 14 | 282 | 1.6 | 4.8 | 0.00 | 0.00 | 0.00 | 37 | 1010.0 |
| 20260503231504 | 14 | 343 | 1.6 | 4.8 | 0.00 | 0.00 | 0.00 | 37 | 1009.8 |
| 20260503231004 | 14 | 281 | 1.6 | 3.2 | 0.00 | 0.00 | 0.00 | 36 | 1009.8 |
| 20260503230504 | 14 | 280 | 1.6 | 9.7 | 0.00 | 0.00 | 0.00 | 36 | 1009.8 |
| 20260503230004 | 14 | 313 | 3.2 | 11.3 | 0.00 | 0.00 | 0.00 | 35 | 1009.8 |
| 20260503225503 | 14 | 328 | 4.8 | 11.3 | 0.00 | 0.00 | 0.00 | 34 | 1009.7 |
| 20260503225004 | 14 | 276 | 4.8 | 9.7 | 0.00 | 0.00 | 0.00 | 34 | 1009.7 |
| 20260503224004 | 15 | 251 | 4.8 | 14.5 | 0.00 | 0.00 | 0.00 | 33 | 1009.6 |
| 20260503223504 | 15 | 236 | 3.2 | 9.7 | 0.00 | 0.00 | 0.00 | 34 | 1009.7 |
| 20260503223004 | 15 | 287 | 3.2 | 11.3 | 0.00 | 0.00 | 0.00 | 32 | 1009.6 |
| 20260503222503 | 15 | 294 | 8.0 | 12.9 | 0.00 | 0.00 | 0.00 | 32 | 1009.6 |
| 20260503220503 | 15 | 287 | 9.7 | 19.3 | 0.00 | 0.00 | 0.00 | 32 | 1009.4 |
| 20260503220004 | 15 | 273 | 6.4 | 12.9 | 0.00 | 0.00 | 0.00 | 32 | 1009.5 |
| 20260503215504 | 14 | 251 | 1.6 | 4.8 | 0.00 | 0.00 | 0.00 | 34 | 1009.5 |
| 20260503215005 | 15 | 250 | 0.0 | 9.7 | 0.00 | 0.00 | 0.00 | 34 | 1009.4 |
| 20260503214504 | 15 | 277 | 1.6 | 8.0 | 0.00 | 0.00 | 0.00 | 33 | 1009.4 |
| 20260503213504 | 15 | 306 | 3.2 | 12.9 | 0.00 | 0.00 | 0.00 | 31 | 1009.4 |
| 20260503213004 | 15 | 351 | 3.2 | 11.3 | 0.00 | 0.00 | 0.00 | 30 | 1009.3 |
| 20260503212504 | 15 | 5 | 4.8 | 11.3 | 0.00 | 0.00 | 0.00 | 30 | 1009.4 |
| 20260503212004 | 15 | 288 | 4.8 | 16.1 | 0.00 | 0.00 | 0.00 | 30 | 1009.5 |
| 20260503211504 | 15 | 310 | 8.0 | 14.5 | 0.00 | 0.00 | 0.00 | 29 | 1009.4 |
| 20260503211003 | 15 | 347 | 8.0 | 16.1 | 0.00 | 0.00 | 0.00 | 29 | 1009.3 |
| 20260503210504 | 15 | 2 | 6.4 | 12.9 | 0.00 | 0.00 | 0.00 | 29 | 1009.4 |
| 20260503205504 | 14 | 240 | 4.8 | 14.5 | 0.00 | 0.00 | 0.00 | 31 | 1009.4 |
| 20260503205004 | 14 | 296 | 8.0 | 24.1 | 0.00 | 0.00 | 0.00 | 30 | 1009.5 |
| 20260503203004 | 14 | 343 | 6.4 | 14.5 | 0.00 | 0.00 | 0.00 | 32 | 1009.6 |
| 20260503202504 | 14 | 265 | 8.0 | 14.5 | 0.00 | 0.00 | 0.00 | 33 | 1009.6 |
| 20260503202004 | 14 | 329 | 3.2 | 12.9 | 0.00 | 0.00 | 0.00 | 33 | 1009.6 |
| 20260503201503 | 13 | 309 | 8.0 | 24.1 | 0.00 | 0.00 | 0.00 | 32 | 1009.6 |
| 20260503201004 | 13 | 318 | 8.0 | 22.5 | 0.00 | 0.00 | 0.00 | 33 | 1009.6 |
| 20260503200503 | 13 | 272 | 4.8 | 14.5 | 0.00 | 0.00 | 0.00 | 33 | 1009.7 |
| 20260503200004 | 13 | 318 | 8.0 | 19.3 | 0.00 | 0.00 | 0.00 | 32 | 1009.6 |
| 20260503195503 | 13 | 348 | 3.2 | 12.9 | 0.00 | 0.00 | 0.00 | 33 | 1009.7 |
| 20260503195005 | 14 | 326 | 4.8 | 19.3 | 0.00 | 0.00 | 0.00 | 34 | 1009.8 |
| 20260503194504 | 14 | 320 | 8.0 | 16.1 | 0.00 | 0.00 | 0.00 | 32 | 1009.7 |
| 20260503194004 | 14 | 297 | 8.0 | 19.3 | 0.00 | 0.00 | 0.00 | 34 | 1009.7 |
| 20260503193004 | 14 | 268 | 4.8 | 16.1 | 0.00 | 0.00 | 0.00 | 34 | 1010.0 |
| 20260503192504 | 14 | 352 | 8.0 | 19.3 | 0.00 | 0.00 | 0.00 | 36 | 1010.1 |
| 20260503192004 | 13 | 324 | 4.8 | 14.5 | 0.00 | 0.00 | 0.00 | 35 | 1010.1 |
| 20260503191503 | 13 | 54 | 3.2 | 9.7 | 0.00 | 0.00 | 0.00 | 36 | 1010.1 |
| 20260503191004 | 13 | 318 | 3.2 | 16.1 | 0.00 | 0.00 | 0.00 | 37 | 1010.2 |
| 20260503190003 | 13 | 333 | 9.7 | 24.1 | 0.00 | 0.00 | 0.00 | 37 | 1010.3 |
| 20260503185504 | 13 | 281 | 8.0 | 19.3 | 0.00 | 0.00 | 0.00 | 37 | 1010.2 |
| 20260503185004 | 13 | 263 | 8.0 | 22.5 | 0.00 | 0.00 | 0.00 | 39 | 1010.4 |
| 20260503184504 | 12 | 300 | 8.0 | 19.3 | 0.00 | 0.00 | 0.00 | 38 | 1010.4 |
| 20260503184003 | 12 | 260 | 4.8 | 16.1 | 0.00 | 0.00 | 0.00 | 38 | 1010.4 |
| 20260503183504 | 12 | 284 | 4.8 | 11.3 | 0.00 | 0.00 | 0.00 | 38 | 1010.4 |
| 20260503183003 | 12 | 314 | 4.8 | 16.1 | 0.00 | 0.00 | 0.00 | 37 | 1010.4 |
| 20260503182505 | 12 | 310 | 3.2 | 19.3 | 0.00 | 0.00 | 0.00 | 39 | 1010.6 |
| 20260503182004 | 12 | 3 | 8.0 | 19.3 | 0.00 | 0.00 | 0.00 | 37 | 1010.5 |
| 20260503181504 | 12 | 29 | 4.8 | 24.1 | 0.00 | 0.00 | 0.00 | 39 | 1010.5 |
| 20260503181004 | 12 | 290 | 4.8 | 11.3 | 0.00 | 0.00 | 0.00 | 40 | 1010.5 |
| 20260503180004 | 12 | 292 | 8.0 | 14.5 | 0.00 | 0.00 | 0.00 | 38 | 1010.7 |
| 20260503175503 | 12 | 327 | 8.0 | 14.5 | 0.00 | 0.00 | 0.00 | 40 | 1010.8 |
| 20260503175004 | 11 | 269 | 6.4 | 12.9 | 0.00 | 0.00 | 0.00 | 39 | 1010.8 |
| 20260503174004 | 11 | 342 | 6.4 | 19.3 | 0.00 | 0.00 | 0.00 | 43 | 1011.0 |
| 20260503173504 | 11 | 262 | 3.2 | 12.9 | 0.00 | 0.00 | 0.00 | 42 | 1011.0 |
| 20260503173004 | 11 | 276 | 4.8 | 12.9 | 0.00 | 0.00 | 0.00 | 44 | 1011.0 |
| 20260503172504 | 10 | 272 | 4.8 | 11.3 | 0.00 | 0.00 | 0.00 | 46 | 1011.1 |
| 20260503172004 | 10 | 0 | 6.4 | 16.1 | 0.00 | 0.00 | 0.00 | 43 | 1011.1 |
| 20260503171004 | 10 | 310 | 9.7 | 19.3 | 0.00 | 0.00 | 0.00 | 43 | 1011.3 |
| 20260503170504 | 10 | 344 | 6.4 | 19.3 | 0.00 | 0.00 | 0.00 | 45 | 1011.2 |
| 20260503151004 | 10 | 350 | 4.8 | 14.5 | 0.00 | 0.00 | 0.00 | 41 | 1011.5 |
| 20260503150504 | 10 | 293 | 9.7 | 20.9 | 0.00 | 0.00 | 0.00 | 39 | 1011.4 |